Regional Weather Roundup
Issued by NWS Sioux Falls, SD

Home | Current Version | Previous Version | Text Only | Print | Product List | Glossary Off
Versions: 1 2 3 4 5 6 7 8 9 10 11 12 13 14 15 16 17 18 19 20 21 22 23 24 25 26 27 28 29 30 31 32 33 34 35 36 37 38 39 40 41 42 43 44 45 46 47 48 49 50

000
ASUS43 KFSD 082102
RWRFSD

WEATHER ROUNDUP FOR SE SOUTH DAKOTA/SW MINNESOTA/NW IOWA
NATIONAL WEATHER SERVICE SIOUX FALLS SD
300 PM CST THU DEC 08 2016

NOTE: "FAIR" INDICATES FEW OR NO CLOUDS BELOW 12,000 FEET WITH NO
SIGNIFICANT WEATHER AND OR OBSTRUCTIONS TO VISIBILITY.


SDZ038>040-050-052>070-082200-
SOUTHEAST SOUTH DAKOTA

CITY           SKY/WX    TMP DP  RH WIND       PRES   REMARKS
CHAMBERLAIN    NOT AVBL
HURON          SUNNY     17   6  62 NW16      30.61R WCI   2
MADISON        FAIR      14   9  79 NW21      30.53S WCI  -4
MITCHELL       SUNNY     19   6  57 NW16      30.62S WCI   4
SIOUX FALLS    NOT AVBL
WINNER         FAIR      15   1  53 NW17      30.60F WCI  -1
YANKTON        SUNNY     21   5  49 NW18      30.59S WCI   6
$$

MNZ071-072-080-081-089-090-097-098-082200-
SOUTHWEST MINNESOTA

CITY           SKY/WX    TMP DP  RH WIND       PRES   REMARKS
FAIRMONT       PTSUNNY   20  11  68 NW22G31   30.46S WCI   3
JACKSON        PTSUNNY   19  10  68 NW18G29   30.47R WCI   4
LUVERNE        CLOUDY    18   9  68 NW17G25   30.53S WCI   2
MARSHALL       FLURRIES  17   9  70 NW22G28   30.51R WCI   0
MONTEVIDEO     LGT SNOW  18  10  73 N13G24    30.54R WCI   4
PIPESTONE      PTSUNNY   16   9  73 NW15G23   30.50R WCI   1
REDWOOD FALLS  FLURRIES  18   9  68 NW13      30.49R WCI   5
TRACY          MOSUNNY   20  12  73 NW18      30.50S WCI   4
WINDOM         FLURRIES  18  10  73 NW20G30   30.47R WCI   1
WORTHINGTON    FLURRIES  18  10  71 NW21G26   30.49R WCI   1
$$

IAZ001>003-012>014-020>022-031-032-NEZ013-014-SDZ071-082200-
NORTHWEST IOWA

CITY           SKY/WX    TMP DP  RH WIND       PRES   REMARKS
CHEROKEE       SUNNY     22   9  56 NW14G21   30.53S WCI  10
DENISON        SUNNY     23   9  54 NW18G25   30.52S WCI   9
ESTHERVILLE    MOSUNNY   20  11  68 NW20G30   30.47R WCI   4
LE MARS        SUNNY     23   7  50 NW20G26   30.57R WCI   8
ORANGE CITY    SUNNY     21  10  63 NW20G26   30.52S WCI   6
SHELDON        CLOUDY    21  10  63 NW21G28   30.50S WCI   6
SIOUX CITY     SUNNY     24   7  48 NW18      30.58S WCI  10
SPENCER        MOSUNNY   22  10  60 NW25G33   30.50R WCI   5
STORM LAKE     SUNNY     21  10  63 NW21G26   30.50R WCI   6
$$

ABBREVIATIONS USED IN REMARKS
   TC - TEMPERATURE IN CELSIUS
  WCI - WIND CHILL INDEX
   HX - HEAT INDEX
  VSB - VISIBILITY




USA.gov is the U.S. government's official web portal to all federal, state and local government web resources and services.